Simultaneous Nadir Overpasses (SNOs) Predictions

Prediction of SNOs between GOES-17 and METOP-A Satellite Orbit:

Table of predicted SNOs for the next 14.0 days since TLE Epoch: 12/27/2019
Index Date Time (GOES-17) GOES-17 Lat,Lon METOP-A Lat,Lon Distance(km) Time Diff (sec)
1 12/28/2019 06:04:43 -0.03,-137.20 -0.22,-138.19 112.81 80
2 12/29/2019 05:46:42 -0.04,-137.20 0.81,-133.20 455.09 80
3 12/30/2019 18:02:55 0.04,-137.20 0.18,-137.79 67.77 80
4 12/31/2019 17:44:55 0.05,-137.20 -0.91,-132.81 499.88 80
5 01/02/2020 06:01:16 -0.05,-137.20 -0.08,-137.44 27.42 80
6 01/04/2020 18:02:08 0.05,-137.19 0.04,-137.04 16.25 80
7 01/07/2020 06:00:30 -0.05,-137.16 0.07,-136.69 54.58 80
8 01/08/2020 18:16:41 0.05,-137.14 0.98,-141.27 470.77 80
9 01/09/2020 17:58:42 0.06,-137.13 -0.11,-136.29 95.30 80




NCC Satellite Simultaneous Nadir Overpasses (SNOs) Prediction Service
